Temp
19 19 20 18 17 15 16 18 19 19 20 20 18 20 18 17 19 20 20 20 20 20 19 19 18 18 19 18 18 18 18 17 17 17 17 17 17 17 17 17 17 17 17 17 18 17 17 17 18
18 19 19 14 15 16 16 17 20 20 20 18 18 19 18 18 18 18 18 20 19 19 19 19 18 18 19 18 18 18 18 17 17 17 17 17 17 17 17 17 17 17 17 18 17 17 17 18 17
18 19 16 15 14 15 17 18 19 20 19 20 19 17 17 18 17 17 18 19 19 18 18 19 18 18 18 18 18 18 18 18 17 17 17 17 17 17 17 16 17 17 17 17 17 17 17 17 17
18 16 14 15 16 17 17 19 19 18 20 19 18 18 17 17 17 18 18 18 18 18 18 19 19 19 19 18 18 18 18 18 17 17 17 17 17 17 17 17 17 17 17 17 17 17 17 17 17
17 13 15 15 16 17 17 18 17 19 20 19 19 18 17 17 18 18 18 18 18 18 18 18 19 19 19 19 18 18 18 18 17 17 17 17 17 17 17 17 17 17 17 17 17 17 17 16 16
14 13 14 15 16 17 18 15 16 18 18 18 18 18 17 18 19 19 19 18 18 17 17 17 18 17 18 19 19 18 18 18 18 18 17 17 17 17 17 17 18 17 17 17 17 17 17 16 16
15 14 15 16 16 18 18 15 17 17 18 18 17 18 16 17 18 19 19 18 17 17 17 17 17 18 18 18 18 18 18 18 18 18 17 17 17 17 17 17 17 17 17 17 16 16 17 16 16
12 13 16 15 16 18 15 16 17 16 17 14 17 17 17 17 18 19 19 19 18 18 18 18 18 18 17 17 17 17 17 17 18 18 17 17 17 17 18 17 17 17 17 17 16 16 16 17 16
13 13 13 16 16 17 14 15 16 13 14 14 15 16 16 17 17 18 18 19 18 18 17 17 17 17 17 17 16 16 16 16 16 17 17 17 17 17 17 17 17 17 17 17 16 16 16 16 15
13 12 14 15 15 15 14 14 14 14 12 14 14 15 15 16 16 15 15 15 17 17 17 16 16 16 16 16 17 16 16 15 16 16 16 17 17 17 17 17 17 17 17 17 16 16 16 16 15
13 13 14 15 14 14 14 14 13 13 14 12 15 15 12 13 13 13 14 15 16 16 15 15 15 15 15 16 16 16 15 15 15 14 15 15 16 17 16 17 16 16 16 16 16 16 16 16 15
15 14 15 15 14 14 14 13 13 11 13 14 12 10 10 11 11 13 13 15 15 15 15 15 15 15 15 15 15 15 15 15 15 15 15 14 14 15 16 16 16 16 16 16 16 16 15 15 15
14 14 13 13 12 12 13 12 12 11 10 10 10 11 11 10 11 13 14 15 15 15 15 15 15 15 15 15 15 15 15 14 14 14 14 14 15 13 14 15 15 16 16 16 16 16 16 15 15
13 13 12 12 13 13 13 12 12 11 11 11 11 10 9 9 10 12 13 14 15 15 15 14 14 14 14 14 13 13 13 13 13 14 14 14 13 13 13 13 14 14 15 16 16 16 16 15 15
12 14 13 12 11 13 10 11 9 10 11 11 10 9 8 8 10 10 12 13 13 13 13 13 12 12 12 12 12 12 12 12 12 12 13 13 13 13 12 12 11 14 14 15 14 16 16 15 15
12 11 13 12 10 11 12 12 13 10 9 9 8 7 7 8 9 11 12 12 12 12 12 12 12 12 12 12 11 11 11 11 12 12 12 12 12 12 12 11 12 11 13 14 13 14 14 14 13
10 14 12 11 9 9 11 10 11 10 8 8 8 7 8 9 8 10 11 11 11 11 10 10 10 10 9 9 9 9 9 9 10 10 10 11 11 11 11 12 11 11 12 13 13 13 14 13 12
15 14 11 9 10 8 8 8 10 8 8 8 7 7 8 9 9 10 11 10 10 10 9 8 8 7 7 6 6 6 6 7 7 7 8 8 9 9 10 11 11 11 10 12 13 13 13 13 12
9 11 10 8 8 8 7 6 9 8 7 8 9 9 9 9 10 10 10 10 9 9 8 7 6 6 5 4 3 4 4 4 4 4 5 6 7 7 8 9 9 10 11 11 11 13 13 13 12
10 10 9 9 9 8 7 8 8 7 10 11 10 8 8 10 8 8 9 9 8 8 7 6 4 4 3 2 2 2 2 2 2 2 3 3 4 5 6 7 7 8 9 10 10 10 12 13 11
9 10 10 9 8 7 6 9 10 12 11 9 9 8 9 8 7 6 7 7 7 6 6 5 3 2 1 1 0 0 0 0 1 1 2 2 3 4 4 5 6 7 8 9 9 8 8 12 9
12 9 8 8 7 7 7 7 9 10 10 10 8 8 9 7 6 6 5 6 5 5 4 3 2 0 -0 -0 -1 -1 -1 -1 -1 -0 0 1 1 2 3 4 5 6 7 8 8 8 8 8 10
10 8 8 8 6 6 7 5 8 9 10 9 7 7 8 7 5 5 4 5 4 4 3 1 0 -1 -1 -2 -2 -2 -2 -2 -2 -2 -1 -1 -0 1 2 3 4 5 6 7 8 8 8 9 9
7 7 7 5 6 3 7 7 9 9 10 11 9 7 8 5 4 3 4 4 3 2 1 -0 -1 -2 -2 -2 -3 -3 -3 -2 -2 -2 -2 -2 -1 -1 0 2 3 3 4 5 6 7 7 7 8
8 6 3 6 3 6 6 7 9 10 9 10 8 7 6 4 3 2 2 2 2 1 -1 -2 -2 -3 -3 -3 -3 -3 -3 -3 -2 -2 -2 -2 -1 -1 -1 0 1 2 3 4 6 7 7 6 6
7 6 5 8 7 6 6 6 10 9 9 7 7 7 5 3 2 1 1 1 1 -0 -2 -3 -3 -4 -4 -3 -3 -3 -3 -2 -2 -2 -2 -2 -1 -1 -1 -0 1 2 3 4 5 6 7 7 8
6 5 5 -0 -3 1 4 6 8 8 6 7 6 6 4 3 2 1 1 1 -0 -2 -3 -3 -4 -4 -4 -4 -4 -3 -3 -2 -2 -2 -2 -2 -2 -2 -1 -0 0 1 2 3 4 5 6 7 8
6 5 6 1 7 6 5 5 8 12 12 6 5 6 3 3 1 0 0 -0 -1 -2 -3 -4 -4 -5 -4 -4 -3 -3 -3 -3 -2 -2 -1 -1 -1 -2 -2 -1 -0 1 1 2 3 4 5 7 8
5 3 2 3 4 4 2 7 5 8 9 5 4 5 3 1 0 -0 -1 -1 -2 -3 -4 -5 -5 -5 -4 -4 -4 -3 -3 -3 -3 -2 -2 -0 -1 -1 -1 -1 -0 0 1 2 3 4 5 6 8
7 6 3 4 5 1 1 6 8 6 5 5 4 4 2 1 -0 -1 -2 -2 -3 -4 -4 -5 -5 -5 -5 -4 -4 -4 -3 -3 -3 -3 -2 -2 -1 -1 -1 -1 -0 0 1 2 2 3 4 5 7
Height
770 768 767 769 794 799 802 792 779 779 774 768 767 765 772 774 774 786 768 768 766 763 765 768 770 772 774 776 778 779 780 781 783 784 785 786 787 789 790 791 792 793 795 795 796 797 799 802 804
770 768 768 780 802 806 805 786 780 774 768 767 766 766 772 777 770 770 768 767 765 764 764 766 769 772 774 775 776 778 780 781 782 783 784 785 788 788 791 792 792 793 795 797 797 798 799 801 804
768 768 777 788 800 803 798 781 777 769 767 764 767 768 771 772 770 771 771 768 766 766 766 767 770 771 773 775 775 778 780 781 780 782 783 783 785 788 788 792 793 794 794 797 799 799 800 802 803
768 770 782 793 796 788 784 775 773 772 766 766 768 773 772 771 772 773 771 768 767 767 768 769 770 770 773 774 776 777 778 780 780 780 781 783 781 785 786 788 791 794 795 796 799 800 801 803 804
769 778 793 795 791 783 777 774 776 773 771 772 768 774 775 773 773 773 770 768 767 768 769 770 771 771 771 773 774 776 777 779 779 780 780 780 781 782 783 785 787 791 793 794 796 799 801 803 805
778 784 798 798 791 780 775 778 776 773 775 773 775 774 775 774 772 772 771 769 768 769 770 770 771 770 772 773 774 774 775 777 777 778 778 778 778 779 781 782 784 788 791 793 794 796 799 803 804
779 789 793 791 787 779 775 777 775 776 774 774 772 775 775 774 773 773 772 771 770 770 770 770 770 769 770 771 772 773 773 773 774 775 775 776 777 776 778 781 781 783 788 790 792 794 797 800 803
781 786 788 789 789 781 779 777 775 777 775 774 771 778 777 775 775 773 773 772 771 771 771 770 770 769 769 769 770 770 771 771 771 771 772 772 773 775 776 779 781 782 785 788 790 792 795 797 800
776 794 798 785 787 780 782 781 777 780 780 779 775 775 776 775 775 774 773 772 771 773 772 771 770 770 769 769 768 768 768 769 768 770 769 769 770 770 773 776 779 781 782 785 788 789 791 796 799
784 798 790 784 784 784 784 785 784 782 786 780 778 775 775 775 776 776 774 773 773 772 773 771 769 769 769 768 768 767 767 766 762 758 765 764 766 768 768 771 775 778 780 781 785 787 790 792 796
785 791 785 782 784 785 785 787 785 786 784 783 778 776 776 775 774 774 774 774 773 773 772 772 770 769 769 768 767 766 766 766 765 762 759 752 759 764 765 766 769 772 775 778 781 783 787 788 791
782 781 782 783 784 784 784 784 784 786 778 774 776 777 777 775 774 773 772 772 771 771 770 771 770 769 769 768 767 765 764 764 763 761 760 755 752 757 760 762 764 767 769 772 775 778 782 785 787
781 782 783 785 786 785 784 785 785 780 774 775 776 776 776 775 773 771 770 769 769 769 769 769 769 769 768 767 766 765 764 763 763 761 761 759 761 754 754 757 760 762 765 768 771 773 777 782 784
783 784 785 785 784 784 784 784 782 773 771 775 777 776 774 773 770 768 767 767 767 768 769 770 769 769 767 766 764 763 762 761 760 759 759 758 758 755 753 753 751 756 759 762 764 767 771 776 780
783 782 783 787 789 785 790 784 788 775 773 776 776 775 773 770 767 766 766 766 768 769 770 769 768 767 766 765 762 761 759 757 756 755 755 754 753 750 751 756 753 748 751 757 759 760 765 770 773
788 791 789 789 793 788 786 783 769 774 777 779 777 775 772 770 767 766 765 765 766 766 767 767 766 764 763 761 758 756 754 753 751 749 749 750 749 749 749 747 749 749 744 748 752 752 757 762 766
799 787 791 794 798 798 792 788 774 776 778 776 775 773 770 769 768 766 766 768 769 768 767 766 763 760 758 756 753 749 747 745 745 743 741 741 742 743 742 741 741 744 744 738 741 743 747 752 760
782 787 795 804 798 800 799 791 775 779 777 772 768 768 768 770 769 767 767 768 768 764 762 761 758 756 754 750 746 742 739 737 737 736 735 734 734 735 736 735 734 734 736 738 731 733 735 743 750
800 798 803 805 802 802 799 797 773 773 773 766 765 765 767 768 767 767 767 766 764 760 757 755 752 751 750 746 742 738 733 731 728 728 727 727 727 728 728 727 727 728 725 730 730 724 724 732 741
797 801 806 803 801 806 803 785 774 770 762 757 762 768 768 767 768 767 764 762 759 756 755 752 750 748 745 742 738 734 729 725 723 720 719 718 719 719 719 719 718 720 720 719 722 721 715 719 723
799 802 802 805 808 809 809 779 764 757 757 761 763 766 767 768 766 763 761 760 758 754 751 749 746 744 740 736 731 727 724 719 716 713 711 711 711 710 709 709 709 709 709 707 707 711 717 703 712
786 803 804 809 814 821 807 813 771 762 762 762 765 766 763 765 765 763 762 759 756 753 750 747 743 739 736 732 727 723 719 714 711 708 705 703 702 701 701 700 700 699 699 698 698 699 707 706 700
797 805 806 810 821 824 809 831 779 770 764 762 764 765 763 764 763 761 760 758 754 751 748 743 738 734 731 726 724 720 715 710 705 701 698 696 694 693 693 692 691 690 689 690 691 691 691 696 703
806 807 812 822 823 854 811 813 781 768 755 749 756 761 762 763 761 759 756 754 751 747 744 739 734 729 725 721 718 714 709 704 699 695 691 688 685 683 682 682 682 682 681 681 682 683 682 690 696
804 814 851 836 855 826 818 813 770 753 754 749 754 760 761 762 759 756 753 749 745 742 739 734 730 723 719 716 711 707 702 697 692 687 683 679 676 674 672 673 672 671 671 673 676 677 679 680 680
806 815 835 823 829 827 821 817 760 752 750 754 755 757 762 758 755 752 749 747 744 741 736 732 726 719 715 711 706 701 696 691 685 680 676 670 666 664 663 663 663 662 662 663 666 668 669 671 672
810 822 819 866 892 865 822 794 758 752 755 754 757 756 758 756 752 749 747 745 742 738 733 729 722 716 712 707 701 694 689 683 676 671 666 660 657 654 653 653 653 654 655 656 657 657 659 663 666
806 815 820 847 818 832 819 813 773 737 734 755 758 755 757 752 751 748 745 742 740 736 731 726 720 714 709 702 695 688 681 674 667 660 654 648 645 644 644 643 644 644 645 647 647 647 650 651 650
816 825 833 827 832 840 861 789 762 748 742 756 757 754 755 752 750 747 743 741 738 734 729 722 717 710 704 697 690 682 674 666 660 653 644 637 634 634 634 634 635 636 637 638 639 641 643 645 643
797 803 816 823 825 853 855 790 742 748 750 750 751 751 750 747 746 744 742 739 736 733 727 721 714 707 701 694 686 678 670 662 654 646 637 631 626 623 624 625 626 628 629 631 633 634 636 638 638
Wind_Speed
7 5 3 4 3 4 2 4 2 5 1 1 5 3 5 2 2 2 8 10 11 6 13 17 18 17 17 16 16 17 17 16 14 13 13 13 14 15 16 16 17 16 16 18 18 20 20 19 19
6 2 4 3 4 2 4 3 3 3 3 6 3 1 5 2 1 3 7 18 12 4 14 16 18 17 17 17 18 18 17 17 15 15 14 14 13 15 15 16 17 18 17 18 19 19 19 22 20
2 4 3 3 3 4 4 4 4 3 5 3 2 5 2 1 1 3 11 15 8 4 12 11 17 17 16 17 18 20 18 18 16 16 16 17 17 16 17 18 19 21 21 18 17 16 18 19 20
2 5 4 3 4 5 5 0 1 6 1 5 1 4 1 2 3 8 11 10 7 3 9 10 11 14 17 17 19 20 20 19 17 17 17 17 19 21 21 22 22 21 20 21 18 18 19 19 20
4 3 2 2 4 4 4 1 2 2 1 4 1 0 2 4 8 10 13 11 4 4 6 12 12 13 14 17 19 19 20 20 19 17 19 20 20 22 25 22 24 22 22 21 21 18 17 19 19
3 3 2 3 4 4 2 4 2 0 2 1 4 1 2 4 10 13 13 13 6 3 5 10 15 17 17 18 18 20 21 21 21 20 21 22 22 24 23 24 25 22 21 20 21 19 19 19 20
5 3 3 2 3 2 1 6 2 2 2 1 1 0 1 3 9 10 11 12 12 8 5 4 5 12 17 17 18 21 22 23 25 24 24 24 24 24 25 25 26 25 22 20 18 19 19 18 24
4 3 1 3 3 3 3 4 1 4 2 8 2 1 1 2 7 7 6 6 8 9 9 10 9 8 9 12 17 18 21 25 25 26 27 26 27 25 26 27 28 26 24 22 20 21 19 20 28
3 3 1 3 4 2 4 5 2 2 2 5 4 1 2 4 6 6 6 6 6 7 11 10 10 10 10 10 10 12 15 22 26 28 30 28 28 30 28 27 28 27 26 24 24 24 24 22 25
4 3 6 1 1 1 2 3 4 6 6 4 4 3 4 9 9 7 6 7 7 9 11 12 11 11 11 11 11 11 11 13 20 30 32 32 30 32 30 30 29 28 28 26 26 25 26 26 28
3 5 3 1 1 2 1 2 1 1 4 7 5 4 7 8 8 6 6 5 5 7 9 11 11 11 12 12 13 13 12 13 12 15 16 26 31 34 33 33 32 31 30 28 28 28 28 30 33
3 1 1 1 1 1 3 1 3 6 8 2 5 6 5 6 5 7 10 8 6 5 7 6 7 10 12 13 13 15 16 15 16 17 19 19 15 32 34 35 35 35 33 34 32 33 31 33 34
2 1 1 1 4 4 2 6 6 9 10 6 6 4 6 8 9 11 11 11 7 7 6 4 6 9 11 13 15 16 17 18 18 15 17 17 22 16 22 32 35 38 36 36 37 36 34 35 35
2 0 3 2 2 2 3 4 1 6 2 3 5 8 9 8 11 11 11 11 10 8 7 7 9 11 13 15 18 20 21 21 20 19 16 14 16 20 26 19 28 34 39 39 41 40 38 39 36
1 1 1 4 5 3 4 4 7 4 3 5 9 10 9 9 12 14 12 7 4 5 8 9 12 13 15 19 23 24 26 29 28 25 22 20 15 16 15 23 27 32 35 39 37 42 41 40 36
3 4 2 2 7 2 3 8 2 3 6 10 10 8 7 8 8 6 6 5 7 8 11 12 15 19 24 28 30 31 31 31 32 32 30 27 26 22 21 23 24 27 37 36 34 40 39 39 36
6 1 2 7 3 4 3 8 4 3 8 10 5 5 5 4 7 14 16 12 9 11 13 18 23 27 29 31 31 32 32 30 30 33 34 34 31 30 25 24 28 25 27 37 39 35 39 35 32
2 1 2 5 4 5 6 16 14 7 7 10 9 6 3 5 3 4 7 9 13 17 20 24 28 30 31 31 33 33 33 35 33 31 31 33 33 30 28 29 26 26 29 36 37 39 43 36 34
6 3 2 4 3 5 5 10 20 9 7 7 5 2 4 5 1 6 13 16 21 24 28 30 32 32 28 25 25 25 25 27 28 27 28 31 32 31 29 31 31 31 30 33 39 32 40 36 31
4 2 4 5 1 1 7 20 14 6 5 3 6 6 5 1 5 5 18 24 26 28 28 27 26 27 26 26 26 25 27 27 29 30 30 30 32 35 35 34 32 30 33 32 35 38 26 35 42
3 3 2 1 7 3 7 7 5 2 1 2 2 4 3 3 7 7 14 23 28 28 29 30 31 29 28 29 26 25 27 27 24 23 24 23 24 28 32 35 34 32 33 33 33 29 38 27 36
1 4 3 3 4 3 4 5 5 4 5 4 5 6 3 4 4 5 10 18 23 27 24 28 31 29 27 27 25 24 24 26 26 27 28 28 28 30 32 32 33 32 32 32 32 37 35 25 31
2 2 2 1 1 3 2 3 7 2 7 8 9 8 4 4 5 8 10 18 22 21 22 25 29 28 27 26 24 25 26 27 28 28 29 29 29 29 30 31 30 31 29 31 30 26 27 33 23
4 4 5 4 2 3 2 3 6 5 6 3 4 7 2 7 7 7 15 17 19 18 24 25 26 26 26 26 27 26 28 29 29 28 29 28 28 28 29 32 35 34 32 33 29 29 28 35 36
2 4 3 5 4 5 3 1 11 6 6 4 6 6 5 7 7 8 8 16 20 23 27 26 25 27 27 27 28 28 29 31 32 32 29 29 28 28 28 30 33 34 35 36 32 31 30 31 28
2 5 5 5 2 4 3 6 6 5 2 5 6 4 6 7 6 7 7 14 16 24 25 25 26 27 27 28 28 29 30 29 30 32 31 32 31 30 28 30 31 27 29 30 29 30 29 28 32
3 1 2 7 2 3 3 7 10 6 7 5 7 3 8 8 7 8 9 13 19 24 26 25 27 28 27 28 28 30 29 29 31 34 35 35 33 32 30 31 31 31 32 36 37 35 33 32 31
2 5 3 3 1 4 5 6 6 4 3 6 8 6 8 7 8 7 7 14 21 25 26 25 25 25 27 27 28 28 30 30 32 33 34 35 33 31 30 30 30 29 31 33 28 25 27 28 30
2 1 4 3 3 4 2 6 8 7 5 7 9 8 7 8 8 7 7 16 21 23 23 25 25 26 27 27 29 29 29 29 30 30 30 30 30 30 30 29 28 29 30 28 30 29 27 29 27
2 5 5 4 5 1 3 8 3 7 7 7 8 8 8 6 6 7 7 15 17 20 23 24 25 25 27 28 29 28 28 27 28 29 29 26 30 32 31 29 29 28 26 25 23 26 26 30 25
Wind_Direction
323 350 106 59 67 70 275 267 251 321 330 302 292 95 117 59 63 184 316 336 331 277 204 192 192 196 200 205 204 204 197 191 189 188 183 181 181 183 183 186 190 185 180 176 174 169 166 167 162
326 73 63 82 103 104 262 263 229 232 261 302 211 15 57 80 3 337 346 338 332 271 190 192 195 201 203 208 208 210 206 199 194 194 193 191 195 187 189 186 185 177 175 173 170 169 166 170 172
84 77 89 113 125 174 205 223 240 302 317 0 86 51 111 151 283 350 341 337 333 258 196 195 200 204 213 215 216 214 211 209 200 202 199 197 197 199 191 191 185 180 175 180 182 180 183 184 177
134 30 38 104 207 244 206 214 302 312 144 28 28 55 354 44 3 353 343 348 335 256 214 208 209 218 217 218 228 224 218 217 217 207 206 207 200 202 198 193 196 189 181 174 178 183 187 193 189
56 63 91 149 244 254 241 268 300 291 356 6 6 276 56 2 2 7 13 2 324 282 248 228 235 235 229 230 233 232 230 223 224 224 215 210 210 210 203 200 193 193 192 184 177 188 190 185 194
50 93 71 223 232 245 274 16 285 85 74 323 39 30 201 342 11 10 21 26 27 323 297 254 248 244 250 248 243 238 234 234 231 233 226 219 214 210 210 206 196 192 192 185 183 194 194 198 194
116 96 213 223 245 278 241 333 30 329 333 66 153 283 172 344 14 13 23 39 50 52 45 14 318 266 268 263 261 254 246 240 239 236 230 229 219 215 207 206 195 190 198 197 197 196 200 204 198
102 97 197 244 209 249 19 351 17 41 329 317 27 264 317 342 357 0 355 21 43 41 35 24 11 337 302 290 269 272 255 249 240 238 234 229 222 221 213 206 204 202 203 209 207 203 209 206 194
127 68 235 255 164 274 359 20 8 318 333 337 327 82 119 354 344 348 347 339 349 12 13 8 4 0 360 352 306 308 288 259 248 243 238 234 227 221 220 217 214 213 213 215 214 216 209 207 202
91 127 216 235 161 104 349 21 334 4 360 311 332 299 354 334 336 334 333 333 337 350 358 356 352 350 345 342 340 354 339 334 287 239 242 232 230 226 219 219 221 224 222 217 217 218 212 206 205
159 183 208 245 113 70 338 269 210 179 276 227 238 272 317 313 316 290 289 285 284 322 346 347 350 352 347 345 341 339 350 345 336 352 311 250 234 232 225 221 221 221 221 218 218 216 216 208 206
150 186 140 74 88 187 243 243 260 192 228 190 253 277 293 308 309 292 289 293 271 293 327 343 358 357 355 355 355 353 348 347 344 343 319 330 299 239 233 229 225 220 218 217 216 215 216 211 210
151 235 322 15 285 255 282 240 236 246 247 289 302 281 292 292 283 287 264 277 252 270 298 305 336 342 340 340 340 339 338 338 338 345 345 330 306 331 249 233 231 226 221 221 219 217 217 214 213
142 34 296 301 348 291 298 286 104 283 77 218 307 297 310 280 276 283 277 248 237 272 296 315 330 331 329 329 329 327 325 322 320 321 325 332 327 308 302 296 237 232 224 224 223 218 219 217 216
94 161 21 29 346 332 316 270 230 251 50 335 306 306 308 297 293 280 289 254 292 309 328 328 336 334 332 328 322 316 312 311 308 306 304 305 305 313 311 294 297 231 232 232 220 216 222 219 217
57 56 9 8 8 12 38 276 294 151 33 300 286 286 301 319 313 21 54 51 25 10 352 335 328 318 313 311 308 304 300 296 292 292 292 290 290 282 278 283 297 292 232 234 220 208 210 212 208
18 231 320 324 64 338 69 278 278 256 337 292 231 279 346 346 40 63 59 50 25 353 342 330 325 324 320 315 310 305 299 293 287 285 285 287 283 281 275 261 261 281 276 223 218 207 204 201 204
199 353 299 253 323 7 286 271 280 274 285 289 312 323 350 114 123 66 28 6 348 347 341 335 331 325 321 316 312 306 300 294 289 285 282 283 282 279 271 263 263 259 269 270 219 208 205 207 202
108 103 283 270 326 357 267 275 284 283 257 268 267 302 130 157 228 351 352 344 342 343 340 335 331 327 319 318 314 306 300 297 293 289 284 280 276 272 267 263 264 262 257 258 261 230 201 197 194
90 99 273 278 337 338 303 291 278 264 244 211 169 151 162 33 328 301 344 344 341 336 332 329 325 318 312 313 306 297 295 291 289 287 281 277 271 268 265 263 261 252 250 251 254 257 226 196 185
132 167 197 233 333 235 296 292 341 34 96 85 154 151 146 11 337 332 340 331 331 329 330 325 321 314 310 310 306 301 298 295 292 286 282 275 273 273 269 262 256 250 243 244 244 252 253 196 187
190 146 80 334 3 281 16 277 302 294 284 227 200 199 176 347 325 319 321 317 323 318 313 315 315 310 307 307 303 298 292 290 288 289 286 281 275 272 265 263 258 252 244 239 236 231 239 267 194
154 78 73 74 115 16 343 61 273 343 267 240 222 219 220 311 319 312 307 303 309 311 311 312 313 310 305 304 297 292 288 285 287 286 283 280 275 268 262 260 259 254 244 237 227 219 226 239 257
142 91 53 48 46 13 264 108 275 208 217 228 201 203 257 325 311 278 295 305 310 321 322 317 312 309 309 304 300 293 287 287 286 283 283 282 277 270 261 255 255 255 254 253 248 247 233 233 239
90 73 342 350 7 222 360 308 248 258 244 227 206 186 297 286 291 299 309 325 325 327 324 319 317 310 310 307 302 297 290 285 280 279 276 272 271 268 263 255 251 249 246 244 241 234 235 231 238
157 154 154 218 246 280 332 235 250 219 277 241 157 172 271 298 294 292 310 316 316 322 317 316 314 309 310 308 303 300 294 288 283 278 272 268 264 260 258 256 251 248 246 243 241 240 239 235 230
199 126 133 101 55 40 255 285 288 246 253 182 215 307 315 298 308 314 314 315 327 321 316 316 314 311 312 311 307 301 295 288 283 281 275 267 263 257 255 253 250 250 250 247 245 241 239 232 232
139 142 78 4 92 297 283 279 244 292 274 233 243 255 302 316 318 308 318 327 326 317 314 317 316 314 314 314 309 303 298 294 290 285 279 266 260 254 252 250 246 245 244 250 250 252 246 240 235
131 358 46 112 120 174 277 262 218 225 233 238 233 241 288 296 298 305 311 317 318 314 321 319 321 322 318 317 312 308 306 304 300 293 294 271 260 251 249 246 246 247 248 245 241 239 241 245 226
169 181 159 124 227 159 140 270 195 226 248 227 229 259 280 272 288 303 304 316 315 319 322 322 322 325 322 319 315 313 312 312 307 302 299 296 264 254 245 241 237 241 243 248 252 245 241 248 242